Location: Staunton
(38.1490°N, 79.0720°W)
Time: 13:52:57
(UTC-05:00)

ISS - Pass Details

Date: 14 December 2017
Orbit: 402 x 407 km, 51.6° (Epoch: 11 December)

Event Time Altitude Azimuth Distance (km) Brightness Sun altitude
Rises 17:22:09 0° 318° (NW) 2,328 0.3 -5.2°
Reaches altitude 10° 17:24:33 10° 334° (NNW) 1,465 -1.0 -5.6°
Maximum altitude 17:27:11 22° 28° (NNE) 942 -2.4 -6.1°
Drops below altitude 10° 17:29:49 10° 81° (E) 1,458 -1.6 -6.5°
Enters shadow 17:30:30 - 88° (E) 1,686 -1.3 -6.7°
